Regional Weather Roundup
Issued by NWS

Home | Current Version | Previous Version | Text Only | Print | Product List | Glossary On
Versions: 1 2 3 4 5 6 7 8 9 10 11 12 13 14 15 16 17 18 19 20 21 22 23 24 25 26 27 28 29 30 31 32 33 34 35 36 37 38 39 40 41 42 43 44 45 46 47 48 49 50
000
ASUS45 KCYS 292110
RWRWY

WYOMING REGIONAL WEATHER ROUNDUP
NATIONAL WEATHER SERVICE CHEYENNE WY
300 PM MDT MON AUG 29 2016

NOTE:  "FAIR" INDICATES FEW OR NO CLOUDS BELOW 12,000 FEET
WITH NO SIGNIFICANT WEATHER AND/OR OBSTRUCTIONS TO VISIBILITY.

WYZ001-292200-
YELLOWSTONE NATIONAL PARK

CITY           SKY/WX    TMP DP  RH WIND       PRES   REMARKS
LK YELLOWSTONE   N/A     73  34  23 VRB7      30.44F
W YELLOWSTONE  NOT AVBL

$$
WYZ002>013-054>058-071-098>099-292200-
NORTHERN WYOMING

CITY           SKY/WX    TMP DP  RH WIND       PRES   REMARKS
JACKSON        SUNNY     82  21  10 S9        30.33
CODY           FAIR      79  48  34 NE8       30.27F
GREYBULL       FAIR      86  39  19 CALM      30.19F
WORLAND        FAIR      83  43  24 VRB6      30.22F
SHERIDAN       FAIR      86  48  26 SE6       30.24F
BUFFALO        FAIR      84  41  21 SE8       30.31F
GILLETTE       FAIR      87  44  22 NE12      30.25F
HULETT         FAIR      81  50  34 E13G22    30.30F
NEWCASTLE      FAIR      86  43  22 S8G18     30.25F

$$
WYZ014>020-022>026-101>103-292200-
CENTRAL WYOMING

CITY           SKY/WX    TMP DP  RH WIND       PRES   REMARKS
BIG PINEY      FAIR      80  25  13 CALM      30.38F
PINEDALE       FAIR      79  23  12 SW7       30.39F
DUBOIS         FAIR      77  25  14 E16G22    30.39F
LANDER         FAIR      85  33  15 VRB3      30.31F
RIVERTON       FAIR      82  36  19 E8        30.31F
CASPER         FAIR      86  38  18 MISG      30.29F
DOUGLAS        FAIR      84  42  22 E17       30.28F

$$
WYZ021-027>030-104>119-292200-
SOUTHERN WYOMING

CITY           SKY/WX    TMP DP  RH WIND       PRES   REMARKS
EVANSTON       FAIR      81  24  12 VRB7      30.37F
FORT BRIDGER   FAIR      83  23  11 SE7       30.41F
ROCK SPRINGS   FAIR      83  22  10 MISG      30.35F
DIXON          MOCLDY    81  31  16 NW14      30.32F
RAWLINS        FAIR      83  24  11 E17G23    30.36F
SARATOGA       FAIR      79  28  15 E8G16     30.36F
LARAMIE        FAIR      76  29  17 E17G25    30.40F
CHEYENNE       FAIR      80  35  19 VRB7      30.33F
TORRINGTON     FAIR      89  45  21 S17       30.22F
PINE BLUFFS    FAIR      81  34  18 E7G16     30.28F

$$



USA.gov is the U.S. government's official web portal to all federal, state and local government web resources and services.